Regional Weather Roundup
Issued by NWS

Home | Current Version | Previous Version | Graphics & Text | Print | Product List | Glossary Off
Versions: 1 2 3 4 5 6 7 8 9 10 11 12 13 14 15 16 17 18 19 20 21 22 23 24 25 26 27 28 29 30 31 32 33 34 35 36 37 38 39 40 41 42 43 44 45 46 47 48 49 50

000
ASUS43 KLMK 291810
RWRKY
KENTUCKY REGIONAL WEATHER ROUNDUP
NATIONAL WEATHER SERVICE LOUISVILLE KY
200 PM EDT FRI AUG 29 2014

NOTE "FAIR" INDICATES FEW OR NO CLOUDS BELOW 12,000 FEET
WITH NO SIGNIFICANT WEATHER AND/OR OBSTRUCTIONS TO VISIBILITY.

KYZ001>023-026-027-061>063-070>075-291900-
WESTERN AND SOUTH CENTRAL KENTUCKY

CITY           SKY/WX    TMP DP  RH WIND       PRES   REMARKS
PADUCAH        SUNNY     91  65  41 S8        29.97F HX  93
HENDERSON      PTSUNNY   90  72  55 S8        29.98S HX  96
OWENSBORO        N/A    N/A N/A N/A MISG        N/A
HOPKINSVILLE   MOSUNNY   91  68  46 S10       30.00F HAZE    HX  94
BOWLING GREEN  SUNNY     90  59  35 S10G21    30.02F
GLASGOW        SUNNY     89  61  38 SW9       30.04F
$$

KYZ024-025-028>034-038-045-046-053-291900-
NORTH CENTRAL KENTUCKY

CITY           SKY/WX    TMP DP  RH WIND       PRES   REMARKS
LOUISVILLE/SDF MOSUNNY   91  70  49 S10G22    30.02F HX  96
LOUISVILLE/LOU SUNNY     88  71  57 VRB6      30.03F HX  94
FORT KNOX      MOSUNNY   89  71  55 SE2       30.02F HX  95
$$

KYZ035>037-039>044-047>052-055>060-089>105-291900-
NORTHEAST KENTUCKY

CITY           SKY/WX    TMP DP  RH WIND       PRES   REMARKS
LEXINGTON      MOSUNNY   89  72  56 S8        30.07F HX  96
COVINGTON      MOSUNNY   86  65  49 S8        30.06F
FRANKFORT      MOSUNNY   88  73  61 VRB5      30.05F HX  95
$$

KYZ054-064>069-076>088-106>120-291900-
SOUTHEAST KENTUCKY

CITY           SKY/WX    TMP DP  RH WIND       PRES   REMARKS
JACKSON        MOSUNNY   87  70  56 CALM      30.11S HX  92
LONDON         MOSUNNY   89  69  51 S8        30.09F HX  93
SOMERSET       PTSUNNY   86  66  51 W7        30.08F
MIDDLESBORO    SUNNY     89  69  52 S6        30.09S HX  93
MONTICELLO     CLEAR     91  68  46 W7        30.08F HX  95
$$



USA.gov is the U.S. government's official web portal to all federal, state and local government web resources and services.